EHI
36 34 29 26 29 32 37 44 47 52 58 57 53 51 49 45 39 33 29 27 30 34 33 35 45 46 37 31 25 20 13 8 6 5 4 2 0 0 0 0 1 1 1
39 38 33 30 31 35 41 47 53 58 62 64 63 61 55 46 35 29 26 23 24 28 29 31 36 38 33 27 22 17 11 6 4 4 3 2 1 0 0 0 0 0 0
41 41 39 36 36 41 48 54 58 63 68 70 71 70 60 46 35 28 23 19 17 19 21 22 25 27 25 19 15 11 7 3 1 1 1 1 1 1 0 0 0 0 0
39 40 42 42 42 46 55 60 62 66 69 71 71 68 58 45 35 28 21 14 11 12 12 13 14 14 13 10 7 5 3 1 0 0 0 0 0 0 0 0 0 0 0
34 37 39 41 44 49 56 61 62 64 68 69 67 60 47 35 28 22 15 8 5 5 5 5 4 4 4 3 2 1 0 0 0 0 0 0 0 0 0 0 0 0 0
26 28 30 32 36 43 49 54 55 57 60 59 54 47 35 24 19 14 9 3 1 0 0 0 0 0 0 0 0 0 0 0 0 0 0 0 0 0 0 0 0 0 0
16 18 19 20 22 27 34 40 42 42 42 38 33 29 24 18 13 9 4 1 0 0 0 0 0 0 0 0 0 0 0 0 0 0 0 0 0 0 0 0 0 0 0
7 8 8 9 10 12 17 21 24 23 21 18 15 14 12 9 7 4 1 0 0 0 0 0 0 0 0 0 0 0 0 0 0 0 0 0 0 0 0 0 0 0 0
2 2 2 2 2 3 4 6 7 7 7 6 6 5 3 2 1 1 0 0 0 0 0 0 0 0 0 0 0 0 0 0 0 0 0 0 0 0 0 0 0 0 0
0 0 0 0 0 0 0 0 0 1 1 1 1 1 1 0 0 0 0 0 0 0 0 0 0 0 0 0 0 0 0 0 0 0 0 0 0 0 0 0 0 0 0
0 0 0 0 0 0 0 0 0 0 0 0 0 0 0 0 0 0 0 0 0 0 0 0 0 0 0 0 0 0 0 0 0 0 0 0 0 0 0 0 0 0 0
0 0 0 0 0 0 0 0 0 0 0 0 0 0 0 0 0 0 0 0 0 0 0 0 0 0 0 0 0 0 0 0 0 0 0 0 0 0 0 0 0 0 0
0 0 0 0 0 0 0 0 0 0 0 0 0 0 0 0 0 0 0 0 0 0 0 0 0 0 0 0 0 0 0 0 0 0 0 0 0 0 0 0 0 0 0
0 0 0 0 0 0 0 0 0 0 0 0 0 0 0 0 0 0 0 0 0 0 0 0 0 0 0 0 0 0 0 0 0 0 0 0 0 0 0 0 0 0 0
0 0 0 0 0 0 0 0 0 0 0 0 0 0 0 0 0 0 0 0 0 0 0 0 0 0 0 0 0 0 0 0 0 0 0 0 0 0 0 0 0 0 0
0 0 0 0 0 0 0 0 0 0 0 0 0 0 0 0 0 0 0 0 0 0 0 0 0 0 0 0 0 0 0 0 0 0 0 0 0 0 0 0 0 0 0
0 0 0 0 0 0 0 0 0 0 0 0 0 0 0 0 0 0 0 0 0 0 0 0 0 0 0 0 0 0 0 0 0 0 0 0 0 0 0 0 0 0 0
0 0 0 0 0 0 0 0 0 0 0 0 0 0 0 0 0 0 0 0 0 0 0 0 0 0 0 0 0 0 0 0 0 0 0 0 0 0 0 0 0 0 0
0 0 0 0 0 0 0 0 0 0 0 0 0 0 0 0 0 0 0 0 0 0 0 0 0 0 0 0 0 0 0 0 0 0 0 0 0 0 0 0 0 0 0
0 0 0 0 0 0 0 0 0 0 0 0 0 0 0 0 0 0 0 0 0 0 0 0 0 0 0 0 0 0 0 0 0 0 0 0 0 0 0 0 0 0 0
0 0 0 0 0 0 0 0 0 0 0 0 0 0 0 0 0 0 0 0 0 0 0 0 0 0 0 0 0 0 0 0 0 0 0 0 0 0 0 0 0 0 0
0 0 0 0 0 0 0 0 0 0 0 0 0 0 0 0 0 0 0 0 0 0 0 0 0 0 0 0 0 0 0 0 0 0 0 0 0 0 0 0 0 0 0
0 0 0 0 0 0 0 0 0 0 0 0 0 0 0 0 0 0 0 0 0 0 0 0 0 0 0 0 0 0 0 0 0 0 0 0 0 0 0 0 0 0 0
0 0 0 0 0 0 0 0 0 0 0 0 0 0 0 0 0 0 0 0 0 0 0 0 0 0 0 0 0 0 0 0 0 0 0 0 0 0 0 0 0 0 0
0 0 0 0 0 0 0 0 0 0 0 0 0 0 0 0 0 0 0 0 0 0 0 0 0 0 0 0 0 0 0 0 0 0 0 0 0 0 0 0 0 0 0
0 0 0 0 0 0 0 0 0 0 0 0 0 0 0 0 0 0 0 0 0 0 0 0 0 0 0 0 0 0 0 0 0 0 0 0 0 0 0 0 0 0 0
Wind_Speed
5 6 8 9 11 12 13 14 14 14 11 9 9 8 7 6 5 3 3 4 5 5 5 4 4 4 4 3 4 3 3 1 1 2 3 2 2 2 1 0 1 2 2
5 4 5 6 9 11 11 12 13 13 13 10 8 7 6 5 4 3 2 1 2 2 3 4 4 4 3 3 3 3 2 1 2 3 3 3 3 2 2 1 1 1 2
5 5 3 2 5 7 9 10 11 12 12 11 8 6 5 4 4 3 3 2 2 1 1 2 2 3 3 3 3 3 4 3 2 1 2 3 3 3 3 2 2 1 1
8 7 5 4 1 2 5 7 8 10 10 10 10 10 7 6 4 3 4 5 5 3 2 2 2 2 2 2 3 2 1 2 3 1 1 2 2 1 2 3 2 2 1
10 10 9 8 6 4 1 3 5 5 7 8 8 9 7 5 5 6 7 7 6 6 6 5 5 5 4 5 5 4 2 1 1 2 1 1 1 1 1 1 2 2 1
11 11 11 11 10 8 6 4 5 5 5 6 7 8 8 9 10 9 8 6 5 5 8 8 7 7 7 7 6 6 7 5 5 3 2 1 1 0 1 1 2 2 2
11 12 12 13 12 12 9 8 8 8 7 7 7 7 8 9 10 9 8 7 6 6 7 8 8 8 8 8 8 8 8 8 7 6 5 5 4 3 3 2 2 2 2
12 12 12 12 12 13 12 12 12 12 11 11 11 10 10 8 8 10 9 8 7 7 8 9 10 10 9 9 8 8 8 8 7 8 6 4 5 4 4 3 3 4 4
11 12 12 13 13 13 14 14 15 15 15 15 15 14 13 13 13 12 11 9 9 9 11 10 11 10 10 10 9 8 8 7 7 6 6 4 4 4 4 4 4 5 7
11 12 12 13 13 13 14 15 16 16 16 15 14 13 15 15 14 13 14 12 11 11 11 11 11 10 10 9 8 8 8 8 7 5 5 4 4 4 3 4 4 5 7
11 11 11 12 13 14 15 15 16 17 16 16 15 16 15 15 14 13 13 12 11 11 11 11 11 10 10 9 9 8 8 7 6 5 5 5 5 5 5 4 4 5 6
11 12 12 13 13 14 14 15 15 16 16 15 16 16 15 14 14 13 12 11 11 11 11 10 10 10 10 9 9 8 7 7 6 6 5 5 4 5 5 5 6 5 6
12 12 12 13 13 13 14 14 14 15 15 15 15 15 14 14 14 12 11 11 11 10 10 10 10 9 8 8 7 7 6 6 6 6 6 6 6 6 6 7 7 6 6
12 12 12 12 12 12 13 13 14 13 14 14 14 14 13 12 12 11 11 11 10 10 9 9 8 8 7 7 7 6 6 6 6 6 6 6 7 7 8 7 7 7 8
12 12 12 11 12 12 12 12 12 12 12 13 13 13 12 11 11 11 10 9 9 9 8 7 7 7 6 8 8 6 6 6 6 6 6 6 5 6 7 8 9 9 8
13 13 12 12 11 11 11 11 11 11 11 12 12 11 11 11 10 10 9 8 8 7 7 6 6 6 7 7 7 8 6 6 6 7 7 6 4 4 7 8 9 11 11
12 12 11 10 10 9 10 10 10 10 10 11 10 10 10 10 9 9 8 8 7 6 6 5 5 6 7 5 5 7 8 7 7 7 7 7 6 7 8 7 10 12 13
12 11 11 10 9 9 9 9 10 10 10 9 9 9 9 9 8 8 7 6 5 5 5 5 5 5 7 5 5 9 9 7 7 7 7 8 8 7 9 12 12 11 9
11 10 10 10 10 9 9 9 9 9 9 9 9 8 8 8 7 7 6 5 4 4 4 5 5 5 5 7 7 11 9 6 7 7 7 7 8 7 8 11 12 12 10
10 10 10 10 10 8 8 9 9 9 8 8 8 7 7 7 6 6 4 4 3 3 4 4 5 5 5 6 6 10 8 7 7 7 6 1 4 8 9 10 10 11 10
11 10 10 9 9 8 8 8 8 8 8 7 7 7 6 5 4 3 3 2 3 3 3 4 3 4 5 3 3 7 8 8 9 7 7 5 6 10 11 11 9 9 11
11 10 9 9 8 7 8 8 8 7 7 6 6 5 3 2 2 2 2 2 3 2 2 3 3 3 2 4 3 4 6 8 9 8 7 8 11 14 14 10 8 11 12
10 9 10 9 8 7 7 8 7 6 5 5 4 3 2 1 1 2 2 2 2 3 4 4 4 4 4 2 3 6 8 9 8 7 8 11 13 13 10 7 10 10 7
9 9 9 9 8 7 7 7 6 4 4 3 2 1 1 1 1 2 3 3 4 5 5 5 5 5 4 6 7 7 6 6 6 7 7 9 11 9 7 7 6 5 5
8 8 8 9 8 7 7 6 5 4 3 2 1 0 0 2 1 2 5 5 7 7 7 7 6 6 6 8 10 9 8 9 8 10 7 5 5 6 6 6 6 6 6
9 8 9 8 8 7 6 5 4 3 2 2 1 1 0 1 1 2 4 6 5 4 3 4 6 5 6 8 10 9 10 11 11 9 5 6 6 7 8 8 8 7 8
Wind_Direction
143 163 175 183 184 185 187 190 194 191 189 191 194 194 193 188 186 188 188 204 212 209 209 218 197 205 204 198 188 192 189 192 197 205 196 167 131 103 112 101 118 123 119
109 120 162 177 186 187 187 188 194 192 192 193 194 193 185 181 172 159 138 160 201 213 217 217 201 193 187 184 191 185 192 173 218 245 233 217 191 159 77 100 126 123 140
82 86 105 154 185 190 192 191 193 192 194 188 185 170 164 170 166 149 123 86 73 65 238 215 191 169 176 182 184 184 187 177 166 306 274 249 242 163 141 96 89 98 116
62 58 56 60 75 174 189 190 189 188 187 185 186 176 178 180 159 125 108 83 68 68 71 102 111 117 128 139 145 138 169 178 171 147 9 3 356 269 175 154 118 101 107
55 53 47 44 39 39 91 159 162 170 176 179 180 179 179 151 123 114 105 89 73 67 70 72 80 88 88 88 86 90 83 89 139 143 143 115 68 339 263 208 180 172 155
55 50 45 45 42 43 55 76 100 107 117 137 160 169 153 138 134 126 119 107 91 77 75 75 72 72 75 75 75 75 73 63 62 59 54 53 50 344 290 262 237 230 197
52 47 43 42 41 44 51 65 80 78 87 100 105 115 122 125 125 122 116 106 94 81 75 80 79 77 75 75 76 76 72 69 69 63 55 46 38 16 349 320 298 272 240
54 49 46 45 45 47 52 61 69 70 71 75 79 81 87 90 90 94 97 95 89 86 83 79 79 76 76 78 75 76 74 69 67 64 55 47 39 22 8 348 322 292 264
61 57 52 50 50 52 54 61 69 69 68 72 75 75 77 82 83 81 79 80 81 84 79 77 75 72 70 69 69 69 67 64 58 58 53 40 37 20 9 349 331 317 305
68 63 59 58 58 60 63 64 68 71 71 72 74 77 77 78 80 80 79 78 77 77 77 75 73 69 67 66 66 69 62 62 55 46 42 23 15 6 347 338 329 320 309
77 72 70 67 68 68 68 70 72 74 74 75 78 79 79 80 81 80 81 82 81 79 78 76 75 72 68 64 63 61 55 50 42 28 25 17 359 343 332 326 317 312 310
87 83 80 76 73 73 73 74 76 79 80 81 82 82 82 82 82 81 81 81 80 78 77 76 74 71 67 60 56 54 48 41 31 18 5 355 346 338 320 326 318 315 314
95 88 83 79 77 77 78 79 79 82 85 86 85 83 83 83 83 84 84 83 82 80 78 77 74 70 68 64 57 53 45 34 24 11 358 348 341 330 334 321 315 313 306
99 94 89 86 85 84 83 84 83 84 86 86 85 84 84 85 87 88 86 84 83 81 79 78 78 74 67 60 52 46 38 25 17 8 353 343 340 335 329 312 308 307 303
104 100 96 94 91 89 88 87 87 86 88 89 88 89 90 91 91 89 88 87 86 87 87 85 81 72 64 46 28 22 25 12 3 357 345 343 338 331 319 317 321 314 307
110 107 105 100 96 95 96 95 92 92 94 94 95 97 97 96 95 95 94 91 88 85 81 72 67 61 61 53 15 347 356 353 350 347 339 325 300 326 281 272 284 293 295
113 110 107 103 102 103 104 103 101 100 97 96 98 100 100 98 98 98 95 91 87 79 68 60 54 56 74 54 7 340 323 333 342 336 331 330 344 315 324 309 279 268 254
118 115 114 111 109 109 108 108 106 104 103 102 101 102 102 99 98 95 90 83 75 64 54 42 36 37 67 48 3 331 305 323 329 328 326 324 325 350 341 318 309 306 301
115 115 117 118 117 115 116 114 110 109 107 104 101 101 102 103 100 92 84 70 56 45 34 35 22 18 58 49 8 335 318 329 331 328 327 325 325 27 340 309 306 311 315
115 118 119 118 115 117 121 118 114 112 107 104 103 104 100 96 90 80 69 58 38 27 14 28 18 11 25 57 9 338 322 338 333 329 325 331 343 339 318 307 307 312 320
118 120 119 117 121 127 126 119 116 111 109 108 108 104 99 94 84 70 51 25 11 18 7 9 11 19 20 64 40 345 330 337 329 329 332 1 3 327 313 299 295 308 309
122 123 122 121 125 130 129 121 116 117 116 114 112 107 98 79 76 48 22 2 345 336 354 359 356 23 41 27 25 317 303 306 312 319 333 344 335 318 306 300 308 302 291
124 129 128 126 128 133 131 123 122 128 128 125 117 108 93 62 24 344 342 334 341 345 358 1 7 16 18 59 219 268 275 273 291 319 320 304 298 298 294 274 284 288 293
131 135 134 130 128 128 124 123 128 134 135 129 123 134 144 111 62 342 350 355 3 2 2 6 11 11 18 17 2 344 330 309 301 321 309 282 274 275 295 304 299 304 323
131 133 131 127 126 129 130 133 137 149 143 137 141 207 84 54 39 50 29 9 43 29 359 4 1 3 4 11 344 326 332 334 335 323 313 335 347 349 353 348 344 340 340
131 131 130 131 132 135 136 136 141 155 178 189 193 265 320 62 20 108 119 72 53 82 50 9 346 6 16 338 325 320 312 305 303 306 337 357 359 355 351 351 352 355 355